Temp
-2 -3 -3 -4 -4 -5 -5 -5 -6 -6 -7 -7 -7 -7 -7 -8 -8 -8 -8 -8 -8 -9
-3 -3 -4 -4 -5 -5 -5 -6 -6 -7 -7 -7 -7 -7 -8 -8 -9 -9 -9 -8 -9 -9
-3 -4 -4 -5 -5 -5 -6 -6 -7 -7 -7 -7 -7 -7 -8 -9 -9 -9 -8 -8 -9 -9
-4 -4 -5 -5 -5 -6 -6 -7 -7 -7 -7 -7 -7 -8 -9 -9 -9 -9 -9 -9 -9 -9
-4 -5 -5 -5 -6 -6 -7 -7 -7 -7 -7 -7 -8 -9 -9 -9 -9 -9 -9 -8 -9 -9
-4 -5 -5 -6 -6 -6 -7 -7 -7 -7 -7 -8 -8 -9 -9 -9 -9 -8 -8 -8 -9 -9
-5 -5 -5 -6 -6 -6 -7 -7 -7 -7 -7 -8 -9 -9 -10 -9 -9 -8 -8 -9 -9 -10
-5 -5 -5 -6 -6 -6 -7 -7 -7 -7 -8 -8 -9 -10 -10 -10 -9 -9 -9 -9 -10 -10
-5 -5 -6 -6 -6 -6 -6 -7 -7 -7 -8 -8 -9 -10 -9 -10 -9 -10 -10 -10 -10 -10
-5 -5 -6 -6 -6 -6 -6 -7 -7 -7 -8 -9 -10 -9 -9 -9 -9 -10 -10 -10 -10 -10
-5 -6 -6 -6 -7 -6 -7 -7 -7 -8 -9 -9 -9 -9 -10 -9 -9 -10 -10 -11 -10 -10
-5 -6 -6 -7 -7 -7 -7 -7 -8 -8 -9 -9 -9 -9 -11 -9 -9 -10 -10 -10 -10 -10
-6 -6 -6 -6 -7 -7 -7 -8 -8 -9 -9 -9 -9 -10 -11 -11 -10 -10 -10 -11 -10 -10
-6 -6 -5 -6 -6 -6 -7 -7 -8 -8 -9 -9 -9 -9 -11 -11 -10 -10 -10 -11 -10 -11
Height
1543 1542 1540 1538 1534 1531 1527 1524 1521 1517 1514 1510 1507 1504 1498 1494 1491 1487 1484 1481 1479 1476
1544 1541 1541 1539 1534 1531 1527 1523 1520 1517 1513 1509 1506 1501 1496 1492 1487 1484 1481 1478 1476 1473
1543 1539 1539 1537 1535 1532 1527 1523 1520 1517 1512 1509 1504 1498 1494 1489 1484 1480 1478 1475 1473 1470
1544 1540 1539 1535 1532 1528 1527 1525 1520 1515 1512 1507 1502 1497 1493 1486 1481 1478 1476 1473 1470 1467
1543 1543 1539 1535 1532 1531 1526 1524 1520 1515 1512 1506 1502 1497 1491 1484 1479 1476 1473 1470 1467 1464
1540 1541 1537 1534 1532 1529 1526 1524 1519 1514 1510 1505 1501 1496 1488 1483 1479 1476 1472 1469 1465 1462
1542 1541 1537 1533 1532 1528 1526 1523 1519 1514 1509 1505 1500 1494 1487 1482 1479 1475 1471 1467 1464 1460
1543 1540 1537 1534 1531 1527 1526 1523 1518 1514 1509 1505 1500 1494 1487 1481 1478 1473 1470 1466 1462 1457
1543 1541 1538 1534 1531 1528 1526 1523 1518 1513 1509 1504 1499 1493 1486 1480 1476 1472 1469 1465 1460 1455
1544 1539 1539 1535 1531 1530 1527 1523 1518 1514 1509 1504 1498 1491 1485 1480 1475 1472 1468 1464 1459 1454
1544 1540 1540 1537 1532 1531 1527 1523 1519 1514 1509 1504 1498 1491 1485 1480 1475 1472 1467 1464 1459 1454
1544 1543 1540 1535 1534 1532 1526 1523 1520 1515 1509 1504 1498 1491 1485 1480 1475 1471 1467 1463 1459 1454
1545 1543 1539 1536 1534 1531 1526 1523 1519 1515 1510 1505 1498 1491 1486 1481 1476 1472 1468 1464 1460 1455
1547 1543 1540 1538 1535 1530 1527 1523 1519 1515 1511 1505 1498 1492 1488 1483 1478 1474 1469 1465 1460 1456
Wind_Speed
11 11 11 11 13 13 15 14 17 19 19 15 19 24 28 19 18 19 16 14 15 16
10 12 12 12 14 16 15 16 17 17 17 19 23 29 21 22 20 20 11 12 15 17
10 11 11 13 16 18 17 17 17 18 19 22 29 23 21 26 22 13 11 13 17 18
11 11 11 13 15 17 17 17 18 18 20 25 31 21 26 27 19 11 12 15 16 18
11 11 13 15 17 19 17 16 18 19 23 29 25 25 30 26 17 13 16 18 17 19
11 12 14 15 17 18 17 17 17 19 25 30 26 28 30 22 16 16 17 15 20 19
11 13 14 15 16 16 16 18 17 20 26 29 27 28 29 18 15 17 15 16 20 19
10 13 14 15 16 14 16 19 15 20 27 27 26 27 26 19 14 20 17 18 19 20
10 14 14 15 16 15 15 18 15 22 28 27 27 27 25 17 13 14 18 21 20 21
10 14 14 15 16 16 16 16 18 24 25 27 29 30 25 20 15 12 17 21 20 23
10 14 15 17 16 15 14 16 19 21 21 25 29 30 26 22 18 15 18 22 22 24
13 15 14 15 14 12 14 14 14 15 20 25 27 26 25 24 22 19 20 23 21 21
12 13 12 14 13 9 11 12 9 14 17 21 25 23 26 26 24 22 22 23 21 21
8 9 15 15 14 15 15 13 12 16 18 22 25 25 25 25 23 22 22 21 21 21
Wind_Direction
346 355 357 352 345 339 336 336 328 344 352 338 330 329 330 333 334 335 330 332 336 335
349 2 359 346 344 345 348 348 350 348 343 337 334 331 335 339 338 336 342 345 344 337
3 8 358 349 352 351 353 354 353 344 339 340 339 337 345 343 342 346 353 351 347 343
4 6 349 356 357 355 356 353 348 341 345 344 344 347 347 347 355 354 356 349 341 345
6 357 359 2 1 356 3 352 355 345 346 347 350 353 348 357 4 1 359 354 342 339
14 2 4 7 0 357 3 353 1 346 349 350 350 348 354 6 14 7 360 357 346 342
21 360 5 7 2 6 5 355 1 347 348 353 350 349 354 7 10 8 4 359 347 347
9 358 7 10 4 14 7 7 357 345 350 352 351 357 357 3 3 15 3 356 351 349
10 1 8 12 13 20 14 11 354 351 352 354 356 355 2 4 358 12 4 357 353 355
9 11 15 14 25 19 17 13 360 354 355 357 358 359 4 13 12 6 9 4 7 8
18 23 18 23 25 17 11 5 7 3 358 352 356 358 7 12 23 21 24 15 12 9
36 21 23 17 8 12 4 357 16 2 346 344 355 359 11 14 24 26 25 18 14 15
43 17 16 3 358 356 354 350 343 345 344 350 0 16 18 16 24 24 19 19 21 24
50 17 23 15 15 24 18 20 17 18 17 18 21 29 24 18 23 19 21 17 19 23